Galena, AK

9:32 PM AKDT on September 27, 2016 (GMT -0800)
Pitka

Weather History for PAGA - November, 2013

Change the Weather History Date:

Friday, November 29, 2013

  Actual Average Record
Temperature  
Mean Temperature -5 °F -  
Max Temperature 6 °F 5 °F 45 °F (1979)
Min Temperature -18 °F -10 °F -49 °F (1990)
Degree Days  
Heating Degree Days 70    
Moisture  
Dew Point -6 °F    
Average Humidity 84    
Maximum Humidity 92    
Minimum Humidity 78    
Precipitation  
Precipitation 0.00 in - - ()
Sea Level Pressure  
Sea Level Pressure 30.25 in    
Wind  
Wind Speed 3 mph (West)    
Max Wind Speed 10 mph    
Max Gust Speed -    
Visibility 9 miles    
Events Snow    
Averages and records for this station are not official NWS values.
T = Trace of Precipitation, MM = Missing Value Source: NWS Daily Summary

Daily Weather History Graph

Daily Weather History Graph

Search for Another Location

Airport or City:

Trip Planner

Search our weather history database for the weather conditions in past years. The results will help you decide how hot, cold, wet, or windy it might be!

Date:

Astronomy

Nov. 29, 2013 Rise Set
Actual Time 10:49 AM AKST 3:42 PM AKST
Civil Twilight 9:36 AM AKST 4:55 PM AKST
Nautical Twilight 8:29 AM AKST 6:02 PM AKST
Astronomical Twilight 7:29 AM AKST 7:02 PM AKST
Moon 5:43 AM AKST (11/29) 2:50 PM AKST (11/29)
Length of Visible Light 7h 18m
Length of Day
4h 52m
Waning Crescent, 13% of the Moon is Illuminated
Nov 29
Waning Crescent
Dec 2
New
Dec 9
First Quarter
Dec 17
Full
Dec 25
Last Quarter

Hourly Weather History & Observations

Time (AKST) Temp. Windchill Dew Point Humidity Pressure Visibility Wind Dir Wind Speed Gust Speed Precip Events Conditions
12:36 AM 3.2 °F - -0.4 °F 85% 30.12 in 5.0 mi Calm Calm - N/A Snow Light Snow
12:54 AM 3.2 °F - 1.4 °F 92% 30.13 in 6.0 mi Calm Calm - N/A   Overcast
12:58 AM 3.9 °F - 1.0 °F 88% 30.15 in 5.0 mi Calm Calm - N/A   Overcast
1:58 AM 6.1 °F -8.7 °F 1.9 °F 83% 30.15 in 4.0 mi West 10.4 mph - N/A Snow Light Snow
2:03 AM 5.0 °F -9.1 °F 1.4 °F 85% 30.13 in 3.0 mi West 9.2 mph - N/A Snow Light Snow
2:27 AM 5.0 °F -9.1 °F 1.4 °F 85% 30.14 in 9.0 mi West 9.2 mph - N/A   Overcast
2:58 AM 5.0 °F -8.1 °F 1.9 °F 87% 30.17 in 6.0 mi West 8.1 mph - N/A Snow Light Snow
3:57 AM 5.0 °F -4.1 °F 1.9 °F 87% 30.18 in 6.0 mi West 4.6 mph - N/A Snow Light Snow
4:58 AM 6.1 °F -4.3 °F 1.9 °F 83% 30.19 in 10.0 mi West 5.8 mph - N/A   Overcast
5:58 AM 3.9 °F -6.9 °F -0.0 °F 84% 30.20 in 10.0 mi West 5.8 mph - N/A   Mostly Cloudy
6:58 AM 3.0 °F -4.4 °F -0.9 °F 84% 30.20 in 10.0 mi WSW 3.5 mph - N/A   Overcast
7:47 AM 1.4 °F -9.9 °F -2.2 °F 85% 30.18 in 10.0 mi West 5.8 mph - N/A   Scattered Clouds
7:58 AM 1.0 °F - -2.9 °F 83% 30.21 in 10.0 mi Calm Calm - N/A   Partly Cloudy
8:35 AM -0.4 °F -10.4 °F -2.2 °F 92% 30.19 in 10.0 mi West 4.6 mph - N/A   Mostly Cloudy
8:58 AM -0.0 °F -11.6 °F -4.0 °F 83% 30.22 in 10.0 mi West 5.8 mph - N/A   Overcast
9:58 AM -0.0 °F -7.9 °F -4.0 °F 83% 30.23 in 10.0 mi WSW 3.5 mph - N/A   Mostly Cloudy
10:05 AM -0.4 °F - -4.0 °F 85% 30.21 in 10.0 mi Calm Calm - N/A   Scattered Clouds
10:14 AM -0.4 °F -8.3 °F -4.0 °F 85% 30.21 in 10.0 mi West 3.5 mph - N/A   Mostly Cloudy
10:58 AM -0.9 °F -11.0 °F -4.0 °F 87% 30.25 in 10.0 mi West 4.6 mph - N/A   Overcast
11:30 AM -0.4 °F - -5.8 °F 78% 30.23 in 10.0 mi Calm Calm - N/A   Scattered Clouds
11:58 AM -2.9 °F - -7.1 °F 82% 30.27 in 10.0 mi Calm Calm - N/A   Mostly Cloudy
12:03 PM -4.0 °F - -7.6 °F 85% 30.24 in 10.0 mi Calm Calm - N/A   Scattered Clouds
12:58 PM 1.0 °F - -2.9 °F 83% 30.27 in 10.0 mi Calm Calm - N/A   Partly Cloudy
1:08 PM 1.4 °F - -2.2 °F 85% 30.26 in 10.0 mi Calm Calm - N/A   Mostly Cloudy
1:58 PM 1.9 °F -5.6 °F -2.9 °F 80% 30.29 in 10.0 mi WNW 3.5 mph - N/A   Mostly Cloudy
2:58 PM 1.0 °F - -2.9 °F 83% 30.31 in 10.0 mi Calm Calm - N/A   Overcast
3:34 PM -2.2 °F - -5.8 °F 85% 30.29 in 10.0 mi Calm Calm - N/A   Scattered Clouds
3:58 PM -4.0 °F - -8.0 °F 83% 30.32 in 10.0 mi Calm Calm - N/A   Partly Cloudy
4:57 PM -7.1 °F - -9.9 °F 87% 30.34 in 10.0 mi Calm Calm - N/A   Mostly Cloudy
5:20 PM -7.6 °F - -11.2 °F 84% 30.31 in 10.0 mi Calm Calm - N/A   Scattered Clouds
5:58 PM -9.0 °F -22.3 °F -13.0 °F 83% 30.35 in 10.0 mi West 5.8 mph - N/A   Clear
6:58 PM -11.0 °F - -15.0 °F 83% 30.35 in 10.0 mi Calm Calm - N/A   Clear
7:58 PM -13.0 °F - -18.0 °F 78% 30.38 in 10.0 mi Calm Calm - N/A   Clear
8:58 PM -14.1 °F -23.9 °F -18.0 °F 82% 30.38 in 9.0 mi East 3.5 mph - N/A   Clear
9:58 PM -15.0 °F - -20.0 °F 78% 30.38 in 10.0 mi Calm Calm - N/A   Clear
10:58 PM -16.1 °F - -20.9 °F 79% 30.41 in 10.0 mi Calm Calm - N/A   Clear
11:58 PM -18.0 °F - -23.1 °F 78% 30.43 in 9.0 mi Calm Calm - N/A   Clear